N60US NZAA-NZHK

Flight info

Callsign N60US
Flight time 1h 21m
Altitude 40000
Route AVNAR1Q IGBAT H384 NP H252 NS Q307 HK DCT
Aircraft C25B/M-SDE2E3FGHRWXY/LB1

Departure

Time 2026-05-08 09:41
Airport Auckland International Airport (NZAA)

Arrival

Time 2026-05-08 11:02
Airport Hokitika Airfield (NZHK)
Time Latitude Longitude Altitude Speed Heading
2026-05-08 09:28 -37.00616 174.79490 20 ft 0 kts 130°
2026-05-08 09:32 -37.00629 174.79501 22 ft 8 kts 152°
2026-05-08 09:32 -37.00659 174.79517 22 ft 8 kts 162°
2026-05-08 09:32 -37.00679 174.79506 23 ft 11 kts 250°
2026-05-08 09:33 -37.00719 174.79363 20 ft 11 kts 250°
2026-05-08 09:33 -37.00748 174.79251 20 ft 18 kts 251°
2026-05-08 09:33 -37.00765 174.79193 22 ft 0 kts 249°
2026-05-08 09:33 -37.00771 174.79173 20 ft 13 kts 251°
2026-05-08 09:34 -37.00832 174.79107 21 ft 12 kts 159°
2026-05-08 09:34 -37.00892 174.79060 20 ft 13 kts 246°
2026-05-08 09:34 -37.00919 174.78963 20 ft 11 kts 251°
2026-05-08 09:34 -37.00948 174.78856 20 ft 19 kts 251°
2026-05-08 09:35 -37.00993 174.78690 20 ft 19 kts 251°
2026-05-08 09:35 -37.01033 174.78546 20 ft 17 kts 251°
2026-05-08 09:35 -37.01070 174.78413 22 ft 15 kts 251°
2026-05-08 09:35 -37.01101 174.78296 21 ft 13 kts 250°
2026-05-08 09:36 -37.01129 174.78204 21 ft 12 kts 255°
2026-05-08 09:36 -37.01155 174.78106 22 ft 11 kts 251°
2026-05-08 09:36 -37.01182 174.78010 22 ft 15 kts 245°
2026-05-08 09:36 -37.01215 174.77898 21 ft 12 kts 249°
2026-05-08 09:37 -37.01241 174.77796 23 ft 11 kts 247°
2026-05-08 09:37 -37.01292 174.77779 22 ft 8 kts 162°
2026-05-08 09:37 -37.01338 174.77798 22 ft 4 kts 160°
2026-05-08 09:37 -37.01339 174.77799 21 ft 0 kts 160°
2026-05-08 09:39 -37.01380 174.77816 21 ft 11 kts 161°
2026-05-08 09:39 -37.01409 174.77884 29 ft 6 kts 70°
2026-05-08 09:39 -37.01408 174.77887 31 ft 0 kts 71°
2026-05-08 09:40 -37.01359 174.78064 21 ft 76 kts 69°
2026-05-08 09:41 -37.01104 174.79127 285 ft 161 kts 69°
2026-05-08 09:41 -37.00639 174.80693 867 ft 200 kts 61°
2026-05-08 09:41 -37.00230 174.82166 1633 ft 161 kts 62°
2026-05-08 09:41 -36.99900 174.83423 2354 ft 150 kts 52°
2026-05-08 09:42 -36.99473 174.84771 2746 ft 188 kts 57°
2026-05-08 09:42 -36.99020 174.86469 3198 ft 226 kts 60°
2026-05-08 09:42 -36.98564 174.88540 3705 ft 265 kts 75°
2026-05-08 09:42 -36.98991 174.90900 4192 ft 296 kts 111°
2026-05-08 09:43 -37.00340 174.92894 4715 ft 307 kts 143°
2026-05-08 09:43 -37.02314 174.93766 5296 ft 301 kts 181°
2026-05-08 09:43 -37.04278 174.93213 5897 ft 283 kts 216°
2026-05-08 09:43 -37.05580 174.91549 6488 ft 259 kts 251°
2026-05-08 09:44 -37.06025 174.89442 7089 ft 248 kts 268°
2026-05-08 09:44 -37.06375 174.87320 7705 ft 251 kts 262°
2026-05-08 09:44 -37.06923 174.85231 8334 ft 254 kts 258°
2026-05-08 09:44 -37.07524 174.83158 8970 ft 253 kts 258°
2026-05-08 09:45 -37.08109 174.81080 9618 ft 252 kts 258°
2026-05-08 09:45 -37.08686 174.78986 9970 ft 262 kts 259°
2026-05-08 09:45 -37.09285 174.76742 10091 ft 277 kts 258°
2026-05-08 09:45 -37.10214 174.74571 10314 ft 299 kts 236°
2026-05-08 09:46 -37.11941 174.72971 10536 ft 319 kts 215°
2026-05-08 09:46 -37.14146 174.72240 10757 ft 336 kts 194°
2026-05-08 09:46 -37.16487 174.71861 11011 ft 341 kts 194°
2026-05-08 09:46 -37.18847 174.71457 11261 ft 343 kts 195°
2026-05-08 09:47 -37.21206 174.70970 11509 ft 345 kts 196°
2026-05-08 09:47 -37.23584 174.70481 11763 ft 347 kts 195°
2026-05-08 09:47 -37.25982 174.70021 12015 ft 349 kts 195°
2026-05-08 09:47 -37.28386 174.69552 12268 ft 350 kts 195°
2026-05-08 09:48 -37.30797 174.69080 12526 ft 351 kts 195°
2026-05-08 09:48 -37.33211 174.68596 12781 ft 352 kts 195°
2026-05-08 09:48 -37.35636 174.68124 13036 ft 353 kts 195°
2026-05-08 09:48 -37.38065 174.67647 13297 ft 353 kts 195°
2026-05-08 09:49 -37.40495 174.67162 13564 ft 354 kts 195°
2026-05-08 09:49 -37.42900 174.66694 13799 ft 355 kts 195°
2026-05-08 09:49 -37.45337 174.66207 14030 ft 355 kts 196°
2026-05-08 09:49 -37.47781 174.65727 14264 ft 356 kts 195°
2026-05-08 09:50 -37.50230 174.65243 14500 ft 356 kts 196°
2026-05-08 09:50 -37.52680 174.64755 14740 ft 357 kts 195°
2026-05-08 09:50 -37.55137 174.64274 14982 ft 357 kts 196°
2026-05-08 09:50 -37.57585 174.63759 15219 ft 355 kts 198°
2026-05-08 09:51 -37.59963 174.62988 15463 ft 352 kts 202°
2026-05-08 09:51 -37.62348 174.62233 15708 ft 354 kts 200°
2026-05-08 09:51 -37.64754 174.61517 15957 ft 355 kts 201°
2026-05-08 09:51 -37.67155 174.60767 16215 ft 355 kts 201°
2026-05-08 09:52 -37.69559 174.60015 16450 ft 356 kts 201°
2026-05-08 09:52 -37.71970 174.59257 16713 ft 357 kts 201°
2026-05-08 09:52 -37.74357 174.58515 16969 ft 358 kts 201°
2026-05-08 09:52 -37.76782 174.57763 17227 ft 358 kts 201°
2026-05-08 09:53 -37.79204 174.57000 17489 ft 359 kts 201°
2026-05-08 09:53 -37.81641 174.56245 17754 ft 360 kts 201°
2026-05-08 09:53 -37.84070 174.55477 18020 ft 361 kts 201°
2026-05-08 09:53 -37.86605 174.54677 18265 ft 393 kts 201°
2026-05-08 09:54 -37.89368 174.53795 18505 ft 425 kts 200°
2026-05-08 09:54 -37.92324 174.52881 18768 ft 448 kts 199°
2026-05-08 09:54 -37.95395 174.51941 19210 ft 459 kts 200°
2026-05-08 09:54 -37.98531 174.50945 19654 ft 467 kts 200°
2026-05-08 09:55 -38.01689 174.49950 20103 ft 474 kts 200°
2026-05-08 09:55 -38.04904 174.48939 20553 ft 478 kts 199°
2026-05-08 09:55 -38.08142 174.47931 21056 ft 475 kts 199°
2026-05-08 09:55 -38.11320 174.46932 21644 ft 465 kts 200°
2026-05-08 09:56 -38.14433 174.45947 22240 ft 458 kts 200°
2026-05-08 09:56 -38.16473 174.45304 22642 ft 455 kts 200°
2026-05-08 09:56 -38.19537 174.44329 23258 ft 452 kts 200°
2026-05-08 09:56 -38.22589 174.43372 23789 ft 451 kts 200°
2026-05-08 09:57 -38.28069 174.41633 24742 ft 450 kts 200°
2026-05-08 09:57 -38.30485 174.40872 25172 ft 451 kts 200°
2026-05-08 09:57 -38.32934 174.40092 25612 ft 452 kts 200°
2026-05-08 09:58 -38.35486 174.39282 26081 ft 453 kts 200°
2026-05-08 09:58 -38.37895 174.38523 26525 ft 454 kts 200°
2026-05-08 09:58 -38.41029 174.37520 27119 ft 456 kts 200°
2026-05-08 09:58 -38.44155 174.36532 27720 ft 458 kts 200°
2026-05-08 09:59 -38.47257 174.35542 28327 ft 460 kts 200°
2026-05-08 09:59 -38.50342 174.34561 28940 ft 462 kts 200°
2026-05-08 09:59 -38.53464 174.33568 29572 ft 463 kts 200°
2026-05-08 09:59 -38.56607 174.32561 30162 ft 465 kts 200°
2026-05-08 10:00 -38.59768 174.31557 30719 ft 466 kts 200°
2026-05-08 10:00 -38.62883 174.30557 31279 ft 466 kts 200°
2026-05-08 10:00 -38.66072 174.29541 31867 ft 467 kts 199°
2026-05-08 10:00 -38.69229 174.28528 32455 ft 466 kts 200°
2026-05-08 10:01 -38.72226 174.27566 33029 ft 466 kts 199°
2026-05-08 10:01 -38.75445 174.26539 33662 ft 466 kts 199°
2026-05-08 10:01 -38.78587 174.25526 34209 ft 465 kts 200°
2026-05-08 10:01 -38.81688 174.24531 34744 ft 464 kts 200°
2026-05-08 10:02 -38.84616 174.23588 35259 ft 462 kts 200°
2026-05-08 10:02 -38.87730 174.22590 35754 ft 462 kts 201°
2026-05-08 10:02 -38.90860 174.21574 36106 ft 464 kts 201°
2026-05-08 10:02 -38.93966 174.20574 36451 ft 466 kts 201°
2026-05-08 10:03 -38.97127 174.19554 36817 ft 468 kts 201°
2026-05-08 10:03 -39.00286 174.18537 37187 ft 468 kts 202°
2026-05-08 10:03 -39.03373 174.17328 37561 ft 463 kts 206°
2026-05-08 10:03 -39.06408 174.16059 37927 ft 463 kts 206°
2026-05-08 10:04 -39.09520 174.14801 38318 ft 463 kts 206°
2026-05-08 10:04 -39.12593 174.13565 38640 ft 462 kts 206°
2026-05-08 10:04 -39.15653 174.12311 38948 ft 461 kts 206°
2026-05-08 10:04 -39.18704 174.11055 39253 ft 460 kts 206°
2026-05-08 10:05 -39.21747 174.09809 39566 ft 459 kts 206°
2026-05-08 10:05 -39.24790 174.08566 39828 ft 459 kts 206°
2026-05-08 10:05 -39.30973 174.06020 39826 ft 472 kts 205°
2026-05-08 10:06 -39.37269 174.03441 39837 ft 481 kts 205°
2026-05-08 10:06 -39.43697 174.00790 39830 ft 488 kts 205°
2026-05-08 10:07 -39.50211 173.98106 39824 ft 494 kts 205°
2026-05-08 10:07 -39.56791 173.95386 39819 ft 497 kts 205°
2026-05-08 10:08 -39.63407 173.92648 39810 ft 500 kts 205°
2026-05-08 10:08 -39.70056 173.89889 39806 ft 502 kts 205°
2026-05-08 10:09 -39.76733 173.87116 39801 ft 504 kts 205°
2026-05-08 10:09 -39.83384 173.84344 39793 ft 505 kts 205°
2026-05-08 10:10 -39.90081 173.81551 39794 ft 506 kts 205°
2026-05-08 10:10 -39.96797 173.78740 39784 ft 506 kts 205°
2026-05-08 10:11 -40.03506 173.75929 39784 ft 507 kts 205°
2026-05-08 10:11 -40.10235 173.73103 39774 ft 507 kts 205°
2026-05-08 10:12 -40.16951 173.70275 39772 ft 507 kts 205°
2026-05-08 10:12 -40.23680 173.67439 39765 ft 508 kts 205°
2026-05-08 10:13 -40.30402 173.64596 39763 ft 508 kts 205°
2026-05-08 10:13 -40.37132 173.61747 39752 ft 507 kts 205°
2026-05-08 10:14 -40.43805 173.58914 39755 ft 507 kts 205°
2026-05-08 10:14 -40.50523 173.56056 39746 ft 507 kts 205°
2026-05-08 10:15 -40.57243 173.53193 39740 ft 507 kts 205°
2026-05-08 10:15 -40.63910 173.50345 39729 ft 507 kts 205°
2026-05-08 10:16 -40.70615 173.47475 39731 ft 506 kts 205°
2026-05-08 10:16 -40.77323 173.44598 39721 ft 506 kts 205°
2026-05-08 10:17 -40.82887 173.42208 39721 ft 506 kts 205°
2026-05-08 10:17 -40.89516 173.39353 39716 ft 506 kts 205°
2026-05-08 10:18 -40.97286 173.36000 39713 ft 506 kts 205°
2026-05-08 10:18 -41.03979 173.33104 39700 ft 506 kts 205°
2026-05-08 10:19 -41.09583 173.30678 39700 ft 505 kts 205°
2026-05-08 10:20 -41.19613 173.26320 39694 ft 505 kts 205°
2026-05-08 10:20 -41.26216 173.23234 39682 ft 497 kts 212°
2026-05-08 10:21 -41.31973 173.18453 39665 ft 481 kts 226°
2026-05-08 10:21 -41.36532 173.12247 39666 ft 469 kts 237°
2026-05-08 10:22 -41.40837 173.05691 39672 ft 470 kts 236°
2026-05-08 10:22 -41.45129 172.99129 39676 ft 470 kts 236°
2026-05-08 10:23 -41.49425 172.92549 39671 ft 470 kts 236°
2026-05-08 10:23 -41.53712 172.85967 39668 ft 470 kts 236°
2026-05-08 10:24 -41.58009 172.79349 39452 ft 475 kts 236°
2026-05-08 10:24 -41.60183 172.76006 39270 ft 478 kts 236°
2026-05-08 10:24 -41.62368 172.72628 39089 ft 481 kts 236°
2026-05-08 10:24 -41.64565 172.69233 38897 ft 483 kts 236°
2026-05-08 10:25 -41.66754 172.65817 38729 ft 485 kts 236°
2026-05-08 10:25 -41.68951 172.62380 38552 ft 487 kts 236°
2026-05-08 10:25 -41.71160 172.58937 38372 ft 488 kts 236°
2026-05-08 10:25 -41.73351 172.55525 38195 ft 489 kts 236°
2026-05-08 10:26 -41.75565 172.52061 37979 ft 490 kts 236°
2026-05-08 10:26 -41.77779 172.48585 37759 ft 490 kts 237°
2026-05-08 10:26 -41.79995 172.45111 37541 ft 491 kts 237°
2026-05-08 10:26 -41.82220 172.41627 37319 ft 491 kts 237°
2026-05-08 10:27 -41.84440 172.38136 37106 ft 492 kts 237°
2026-05-08 10:27 -41.86662 172.34640 36891 ft 492 kts 237°
2026-05-08 10:27 -41.88883 172.31136 36682 ft 493 kts 237°
2026-05-08 10:27 -41.91109 172.27630 36461 ft 494 kts 237°
2026-05-08 10:28 -41.93339 172.24116 36258 ft 494 kts 236°
2026-05-08 10:28 -41.95567 172.20594 36057 ft 495 kts 237°
2026-05-08 10:28 -41.97791 172.17063 35857 ft 495 kts 237°
2026-05-08 10:28 -42.00026 172.13528 35657 ft 495 kts 236°
2026-05-08 10:29 -42.02258 172.09992 35453 ft 496 kts 237°
2026-05-08 10:29 -42.04485 172.06457 35258 ft 495 kts 237°
2026-05-08 10:29 -42.06710 172.02910 35063 ft 496 kts 237°
2026-05-08 10:29 -42.08939 171.99362 34863 ft 496 kts 237°
2026-05-08 10:30 -42.11138 171.95866 34671 ft 496 kts 237°
2026-05-08 10:30 -42.13362 171.92317 34489 ft 496 kts 237°
2026-05-08 10:30 -42.15581 171.88762 34298 ft 496 kts 237°
2026-05-08 10:30 -42.17808 171.85204 34105 ft 497 kts 237°
2026-05-08 10:31 -42.20037 171.81640 33920 ft 497 kts 237°
2026-05-08 10:31 -42.22260 171.78075 33735 ft 497 kts 238°
2026-05-08 10:31 -42.24482 171.74499 33557 ft 498 kts 238°
2026-05-08 10:31 -42.26712 171.70921 33339 ft 498 kts 238°
2026-05-08 10:32 -42.28938 171.67339 33126 ft 498 kts 238°
2026-05-08 10:32 -42.31168 171.63750 32921 ft 498 kts 238°
2026-05-08 10:32 -42.33392 171.60153 32714 ft 499 kts 238°
2026-05-08 10:32 -42.35622 171.56557 32492 ft 499 kts 238°
2026-05-08 10:33 -42.37848 171.52957 32287 ft 498 kts 238°
2026-05-08 10:33 -42.39836 171.49185 32072 ft 488 kts 246°
2026-05-08 10:33 -42.41492 171.45207 31869 ft 483 kts 250°
2026-05-08 10:33 -42.43092 171.41200 31652 ft 484 kts 250°
2026-05-08 10:34 -42.44693 171.37195 31454 ft 484 kts 249°
2026-05-08 10:34 -42.46301 171.33186 31257 ft 484 kts 250°
2026-05-08 10:34 -42.47900 171.29183 31060 ft 484 kts 250°
2026-05-08 10:34 -42.49497 171.25173 30845 ft 484 kts 250°
2026-05-08 10:35 -42.51061 171.21285 30013 ft 443 kts 250°
2026-05-08 10:35 -42.52446 171.17919 28418 ft 380 kts 251°
2026-05-08 10:35 -42.53614 171.14934 26816 ft 340 kts 254°
2026-05-08 10:35 -42.54647 171.12227 25315 ft 316 kts 253°
2026-05-08 10:36 -42.55772 171.09750 23879 ft 306 kts 245°
2026-05-08 10:36 -42.57186 171.07499 22450 ft 327 kts 237°
2026-05-08 10:36 -42.58993 171.05407 20895 ft 353 kts 225°
2026-05-08 10:36 -42.61161 171.03668 19408 ft 371 kts 213°
2026-05-08 10:37 -42.63618 171.02428 18008 ft 382 kts 201°
2026-05-08 10:37 -42.66261 171.01830 16487 ft 388 kts 189°
2026-05-08 10:37 -42.68965 171.01905 14988 ft 391 kts 176°
2026-05-08 10:37 -42.71621 171.02667 13550 ft 389 kts 165°
2026-05-08 10:38 -42.74101 171.04106 12029 ft 386 kts 153°
2026-05-08 10:38 -42.76319 171.06113 10538 ft 380 kts 140°
2026-05-08 10:38 -42.78197 171.08593 9093 ft 373 kts 129°
2026-05-08 10:38 -42.79670 171.11436 7559 ft 363 kts 118°
2026-05-08 10:39 -42.80733 171.14494 6090 ft 352 kts 107°
2026-05-08 10:39 -42.81358 171.17655 5050 ft 333 kts 96°
2026-05-08 10:39 -42.81600 171.20579 4909 ft 291 kts 86°
2026-05-08 10:39 -42.81537 171.23153 4760 ft 267 kts 78°
2026-05-08 10:40 -42.81240 171.25603 4646 ft 259 kts 70°
2026-05-08 10:40 -42.80742 171.27906 4613 ft 249 kts 63°
2026-05-08 10:40 -42.80058 171.30050 4580 ft 245 kts 56°
2026-05-08 10:40 -42.79239 171.32062 4549 ft 242 kts 54°
2026-05-08 10:41 -42.78452 171.34108 4510 ft 244 kts 55°
2026-05-08 10:41 -42.77662 171.36144 4500 ft 244 kts 54°
2026-05-08 10:41 -42.76841 171.38168 4459 ft 245 kts 54°
2026-05-08 10:41 -42.76031 171.40209 4424 ft 245 kts 54°
2026-05-08 10:42 -42.75232 171.42243 4401 ft 242 kts 55°
2026-05-08 10:42 -42.74415 171.44292 4357 ft 260 kts 54°
2026-05-08 10:42 -42.73489 171.46583 4352 ft 292 kts 55°
2026-05-08 10:42 -42.72481 171.49123 4328 ft 315 kts 57°
2026-05-08 10:43 -42.71399 171.51795 4331 ft 329 kts 52°
2026-05-08 10:43 -42.69945 171.54260 4315 ft 339 kts 43°
2026-05-08 10:43 -42.68223 171.56439 4278 ft 338 kts 32°
2026-05-08 10:43 -42.66338 171.58113 4260 ft 303 kts 24°
2026-05-08 10:44 -42.64535 171.59233 4228 ft 269 kts 16°
2026-05-08 10:44 -42.62836 171.59967 4203 ft 244 kts
2026-05-08 10:44 -42.61243 171.60347 4171 ft 229 kts
2026-05-08 10:44 -42.59704 171.60494 4125 ft 216 kts 355°
2026-05-08 10:45 -42.58239 171.60434 4074 ft 205 kts 350°
2026-05-08 10:45 -42.56809 171.60163 4058 ft 212 kts 346°
2026-05-08 10:45 -42.55359 171.59691 4023 ft 216 kts 340°
2026-05-08 10:45 -42.53932 171.58987 3990 ft 220 kts 336°
2026-05-08 10:46 -42.52556 171.58087 3960 ft 220 kts 330°
2026-05-08 10:46 -42.51221 171.56960 3939 ft 232 kts 326°
2026-05-08 10:46 -42.49986 171.55612 3911 ft 226 kts 318°
2026-05-08 10:46 -42.48866 171.54142 3875 ft 222 kts 313°
2026-05-08 10:47 -42.47897 171.52493 3871 ft 225 kts 309°
2026-05-08 10:47 -42.47037 171.50705 3868 ft 229 kts 302°
2026-05-08 10:47 -42.46320 171.48767 3872 ft 231 kts 297°
2026-05-08 10:47 -42.45758 171.46658 3863 ft 246 kts 290°
2026-05-08 10:48 -42.45345 171.44341 3866 ft 260 kts 283°
2026-05-08 10:48 -42.45244 171.41844 3861 ft 273 kts 268°
2026-05-08 10:48 -42.45882 171.39357 3849 ft 283 kts 252°
2026-05-08 10:48 -42.46543 171.36935 3849 ft 285 kts 256°
2026-05-08 10:49 -42.47338 171.34384 3854 ft 291 kts 250°
2026-05-08 10:49 -42.48214 171.31948 3855 ft 291 kts 250°
2026-05-08 10:49 -42.49049 171.29408 3864 ft 291 kts 252°
2026-05-08 10:49 -42.49850 171.26901 3840 ft 294 kts 251°
2026-05-08 10:50 -42.50689 171.24367 3848 ft 295 kts 251°
2026-05-08 10:50 -42.51524 171.21823 3853 ft 296 kts 252°
2026-05-08 10:50 -42.52359 171.19268 3847 ft 296 kts 251°
2026-05-08 10:50 -42.53194 171.16713 3799 ft 298 kts 252°
2026-05-08 10:51 -42.54040 171.14126 3674 ft 302 kts 251°
2026-05-08 10:51 -42.54935 171.11540 3545 ft 305 kts 245°
2026-05-08 10:51 -42.56152 171.09179 3412 ft 301 kts 239°
2026-05-08 10:51 -42.57241 171.06862 3274 ft 282 kts 244°
2026-05-08 10:52 -42.58248 171.04638 3144 ft 273 kts 242°
2026-05-08 10:52 -42.59279 171.02518 3016 ft 265 kts 242°
2026-05-08 10:52 -42.60270 171.00438 2874 ft 260 kts 242°
2026-05-08 10:52 -42.61254 170.98396 2746 ft 256 kts 242°
2026-05-08 10:53 -42.62217 170.96373 2615 ft 254 kts 242°
2026-05-08 10:53 -42.63172 170.94354 2493 ft 262 kts 242°
2026-05-08 10:53 -42.64207 170.92140 2484 ft 287 kts 242°
2026-05-08 10:53 -42.65265 170.89955 2489 ft 273 kts 241°
2026-05-08 10:54 -42.66284 170.87857 2480 ft 262 kts 243°
2026-05-08 10:54 -42.67244 170.85789 2479 ft 256 kts 242°
2026-05-08 10:54 -42.68209 170.83782 2469 ft 251 kts 242°
2026-05-08 10:54 -42.69131 170.81788 2462 ft 248 kts 242°
2026-05-08 10:55 -42.70031 170.79961 2471 ft 209 kts 241°
2026-05-08 10:55 -42.70786 170.78361 2462 ft 197 kts 243°
2026-05-08 10:55 -42.71540 170.76834 2451 ft 193 kts 236°
2026-05-08 10:55 -42.72604 170.75704 2464 ft 196 kts 215°
2026-05-08 10:56 -42.72790 170.75566 2460 ft 196 kts 213°
2026-05-08 10:56 -42.73073 170.75383 2467 ft 196 kts 208°
2026-05-08 10:56 -42.74424 170.74996 2453 ft 201 kts 186°
2026-05-08 10:56 -42.75825 170.75201 2463 ft 206 kts 164°
2026-05-08 10:57 -42.77117 170.76065 2459 ft 209 kts 147°
2026-05-08 10:57 -42.78165 170.77406 2461 ft 207 kts 122°
2026-05-08 10:57 -42.78881 170.81064 2396 ft 203 kts 81°
2026-05-08 10:58 -42.78513 170.82889 2261 ft 188 kts 61°
2026-05-08 10:58 -42.77879 170.84269 2126 ft 162 kts 50°
2026-05-08 10:58 -42.77281 170.85542 1951 ft 161 kts 52°
2026-05-08 10:58 -42.76819 170.86560 1615 ft 106 kts 50°
2026-05-08 10:59 -42.76400 170.87384 1125 ft 105 kts 47°
2026-05-08 10:59 -42.76006 170.88218 769 ft 104 kts 52°
2026-05-08 10:59 -42.75648 170.89006 676 ft 94 kts 44°
2026-05-08 10:59 -42.75284 170.89736 638 ft 92 kts 49°
2026-05-08 11:00 -42.74925 170.90500 635 ft 99 kts 48°
2026-05-08 11:00 -42.74537 170.91291 634 ft 101 kts 48°
2026-05-08 11:00 -42.74167 170.92107 635 ft 102 kts 49°
2026-05-08 11:00 -42.73772 170.92902 631 ft 102 kts 46°
2026-05-08 11:01 -42.73401 170.93715 631 ft 101 kts 50°
2026-05-08 11:01 -42.73014 170.94495 621 ft 100 kts 45°
2026-05-08 11:01 -42.72636 170.95319 579 ft 102 kts 50°
2026-05-08 11:01 -42.72258 170.96101 506 ft 98 kts 42°
2026-05-08 11:02 -42.71876 170.96898 387 ft 99 kts 43°
2026-05-08 11:02 -42.71210 170.98286 88 ft 62 kts 40°
2026-05-08 11:02 -42.71082 170.98570 88 ft 22 kts 56°
2026-05-08 11:03 -42.71030 170.98674 88 ft 0 kts 136°
2026-05-08 11:03 -42.71051 170.98635 88 ft 18 kts 239°
2026-05-08 11:03 -42.71130 170.98480 89 ft 12 kts 195°
2026-05-08 11:03 -42.71204 170.98532 90 ft 12 kts 143°
2026-05-08 11:04 -42.71295 170.98527 89 ft 19 kts 196°
2026-05-08 11:04 -42.71355 170.98491 88 ft 6 kts 250°
2026-05-08 11:04 -42.71360 170.98443 87 ft 8 kts 188°